Year,Month,Day,Hour,Minute,Value (Times are PST for temperature in C)
2018,08,14,00,00,16.60
2018,08,14,00,01,16.60
2018,08,14,00,02,16.60
2018,08,14,00,03,16.60
2018,08,14,00,04,16.50
2018,08,14,00,05,16.50
2018,08,14,00,06,16.50
2018,08,14,00,07,16.50
2018,08,14,00,08,16.40
2018,08,14,00,09,16.40
2018,08,14,00,10,16.40
2018,08,14,00,11,16.40
2018,08,14,00,12,16.40
2018,08,14,00,13,16.30
2018,08,14,00,14,16.30
2018,08,14,00,15,16.30
2018,08,14,00,16,16.30
2018,08,14,00,17,16.30
2018,08,14,00,18,16.30
2018,08,14,00,19,16.30
2018,08,14,00,20,16.30
2018,08,14,00,21,16.20
2018,08,14,00,22,16.20
2018,08,14,00,23,16.20
2018,08,14,00,24,16.20
2018,08,14,00,25,16.20
2018,08,14,00,26,16.20
2018,08,14,00,27,16.20
2018,08,14,00,28,16.20
2018,08,14,00,29,16.20
2018,08,14,00,30,16.20
2018,08,14,00,31,16.20
2018,08,14,00,32,16.10
2018,08,14,00,33,16.10
2018,08,14,00,34,16.10
2018,08,14,00,35,16.10
2018,08,14,00,36,16.10
2018,08,14,00,37,16.10
2018,08,14,00,38,16.10
2018,08,14,00,39,16.10
2018,08,14,00,40,16.10
2018,08,14,00,41,16.00
2018,08,14,00,42,16.00
2018,08,14,00,43,16.00
2018,08,14,00,44,16.00
2018,08,14,00,45,15.90
2018,08,14,00,46,15.90
2018,08,14,00,47,15.90
2018,08,14,00,48,15.90
2018,08,14,00,49,15.90
2018,08,14,00,50,15.90
2018,08,14,00,51,15.90
2018,08,14,00,52,15.90
2018,08,14,00,53,15.80
2018,08,14,00,54,15.80
2018,08,14,00,55,15.80
2018,08,14,00,56,15.80
2018,08,14,00,57,15.80
2018,08,14,00,58,15.80
2018,08,14,00,59,15.80
2018,08,14,01,00,15.80
2018,08,14,01,01,15.70
2018,08,14,01,02,15.70
2018,08,14,01,03,15.70
2018,08,14,01,04,15.70
2018,08,14,01,05,15.70
2018,08,14,01,06,15.70
2018,08,14,01,07,15.70
2018,08,14,01,08,15.70
2018,08,14,01,09,15.70
2018,08,14,01,10,15.60
2018,08,14,01,11,15.60
2018,08,14,01,12,15.60
2018,08,14,01,13,15.60
2018,08,14,01,14,15.60
2018,08,14,01,15,15.60
2018,08,14,01,16,15.60
2018,08,14,01,17,15.60
2018,08,14,01,18,15.60
2018,08,14,01,19,15.60
2018,08,14,01,20,15.60
2018,08,14,01,21,15.60
2018,08,14,01,22,15.60
2018,08,14,01,23,15.60
2018,08,14,01,24,15.60
2018,08,14,01,25,15.60
2018,08,14,01,26,15.60
2018,08,14,01,27,15.50
2018,08,14,01,28,15.50
2018,08,14,01,29,15.50
2018,08,14,01,30,15.50
2018,08,14,01,31,15.50
2018,08,14,01,32,15.40
2018,08,14,01,33,15.40
2018,08,14,01,34,15.40
2018,08,14,01,35,15.40
2018,08,14,01,36,15.40
2018,08,14,01,37,15.40
2018,08,14,01,38,15.40
2018,08,14,01,39,15.30
2018,08,14,01,40,15.30
2018,08,14,01,41,15.30
2018,08,14,01,42,15.30
2018,08,14,01,43,15.30
2018,08,14,01,44,15.30
2018,08,14,01,45,15.30
2018,08,14,01,46,15.30
2018,08,14,01,47,15.30
2018,08,14,01,48,15.30
2018,08,14,01,49,15.20
2018,08,14,01,50,15.20
2018,08,14,01,51,15.20
2018,08,14,01,52,15.20
2018,08,14,01,53,15.20
2018,08,14,01,54,15.20
2018,08,14,01,55,15.20
2018,08,14,01,56,15.20
2018,08,14,01,57,15.20
2018,08,14,01,58,15.20
2018,08,14,01,59,15.10
2018,08,14,02,00,15.10
2018,08,14,02,01,15.10
2018,08,14,02,02,15.10
2018,08,14,02,03,15.10
2018,08,14,02,04,15.10
2018,08,14,02,05,15.00
2018,08,14,02,06,15.00
2018,08,14,02,07,15.00
2018,08,14,02,08,15.00
2018,08,14,02,09,15.00
2018,08,14,02,10,15.00
2018,08,14,02,11,15.00
2018,08,14,02,12,15.00
2018,08,14,02,13,14.90
2018,08,14,02,14,14.90
2018,08,14,02,15,14.90
2018,08,14,02,16,14.90
2018,08,14,02,17,14.90
2018,08,14,02,18,14.90
2018,08,14,02,19,14.80
2018,08,14,02,20,14.80
2018,08,14,02,21,14.80
2018,08,14,02,22,14.80
2018,08,14,02,23,14.80
2018,08,14,02,24,14.80
2018,08,14,02,25,14.80
2018,08,14,02,26,14.80
2018,08,14,02,27,14.80
2018,08,14,02,28,14.70
2018,08,14,02,29,14.70
2018,08,14,02,30,14.70
2018,08,14,02,31,14.70
2018,08,14,02,32,14.70
2018,08,14,02,33,14.70
2018,08,14,02,34,14.70
2018,08,14,02,35,14.70
2018,08,14,02,36,14.70
2018,08,14,02,37,14.70
2018,08,14,02,38,14.60
2018,08,14,02,39,14.60
2018,08,14,02,40,14.60
2018,08,14,02,41,14.60
2018,08,14,02,42,14.60
2018,08,14,02,43,14.60
2018,08,14,02,44,14.60
2018,08,14,02,45,14.60
2018,08,14,02,46,14.50
2018,08,14,02,47,14.50
2018,08,14,02,48,14.50
2018,08,14,02,49,14.50
2018,08,14,02,50,14.50
2018,08,14,02,51,14.50
2018,08,14,02,52,14.50
2018,08,14,02,53,14.50
2018,08,14,02,54,14.50
2018,08,14,02,55,14.50
2018,08,14,02,56,14.50
2018,08,14,02,57,14.50
2018,08,14,02,58,14.50
2018,08,14,02,59,14.50
2018,08,14,03,00,14.40
2018,08,14,03,01,14.40
2018,08,14,03,02,14.40
2018,08,14,03,03,14.40
2018,08,14,03,04,14.40
2018,08,14,03,05,14.40
2018,08,14,03,06,14.40
2018,08,14,03,07,14.40
2018,08,14,03,08,14.40
2018,08,14,03,09,14.40
2018,08,14,03,10,14.40
2018,08,14,03,11,14.40
2018,08,14,03,12,14.30
2018,08,14,03,13,14.30
2018,08,14,03,14,14.30
2018,08,14,03,15,14.30
2018,08,14,03,16,14.30
2018,08,14,03,17,14.30
2018,08,14,03,18,14.30
2018,08,14,03,19,14.30
2018,08,14,03,20,14.30
2018,08,14,03,21,14.30
2018,08,14,03,22,14.30
2018,08,14,03,23,14.30
2018,08,14,03,24,14.20
2018,08,14,03,25,14.20
2018,08,14,03,26,14.20
2018,08,14,03,27,14.20
2018,08,14,03,28,14.20
2018,08,14,03,29,14.20
2018,08,14,03,30,14.20
2018,08,14,03,31,14.20
2018,08,14,03,32,14.10
2018,08,14,03,33,14.10
2018,08,14,03,34,14.10
2018,08,14,03,35,14.10
2018,08,14,03,36,14.10
2018,08,14,03,37,14.10
2018,08,14,03,38,14.10
2018,08,14,03,39,14.10
2018,08,14,03,40,14.10
2018,08,14,03,41,14.10
2018,08,14,03,42,14.00
2018,08,14,03,43,14.00
2018,08,14,03,44,14.00
2018,08,14,03,45,14.00
2018,08,14,03,46,14.00
2018,08,14,03,47,14.00
2018,08,14,03,48,14.00
2018,08,14,03,49,13.90
2018,08,14,03,50,13.90
2018,08,14,03,51,13.90
2018,08,14,03,52,13.90
2018,08,14,03,53,13.90
2018,08,14,03,54,13.90
2018,08,14,03,55,13.90
2018,08,14,03,56,13.90
2018,08,14,03,57,13.90
2018,08,14,03,58,13.90
2018,08,14,03,59,13.90
2018,08,14,04,00,13.90
2018,08,14,04,01,13.80
2018,08,14,04,02,13.80
2018,08,14,04,03,13.80
2018,08,14,04,04,13.80
2018,08,14,04,05,13.80
2018,08,14,04,06,13.80
2018,08,14,04,07,13.80
2018,08,14,04,08,13.80
2018,08,14,04,09,13.80
2018,08,14,04,10,13.80
2018,08,14,04,11,13.80
2018,08,14,04,12,13.80
2018,08,14,04,13,13.80
2018,08,14,04,14,13.80
2018,08,14,04,15,13.80
2018,08,14,04,16,13.80
2018,08,14,04,17,13.80
2018,08,14,04,18,13.70
2018,08,14,04,19,13.70
2018,08,14,04,20,13.70
2018,08,14,04,21,13.70
2018,08,14,04,22,13.70
2018,08,14,04,23,13.70
2018,08,14,04,24,13.70
2018,08,14,04,25,13.70
2018,08,14,04,26,13.70
2018,08,14,04,27,13.70
2018,08,14,04,28,13.70
2018,08,14,04,29,13.60
2018,08,14,04,30,13.60
2018,08,14,04,31,13.60
2018,08,14,04,32,13.60
2018,08,14,04,33,13.60
2018,08,14,04,34,13.60
2018,08,14,04,35,13.60
2018,08,14,04,36,13.60
2018,08,14,04,37,13.50
2018,08,14,04,38,13.50
2018,08,14,04,39,13.50
2018,08,14,04,40,13.50
2018,08,14,04,41,13.40
2018,08,14,04,42,13.40
2018,08,14,04,43,13.40
2018,08,14,04,44,13.40
2018,08,14,04,45,13.40
2018,08,14,04,46,13.40
2018,08,14,04,47,13.40
2018,08,14,04,48,13.40
2018,08,14,04,49,13.40
2018,08,14,04,50,13.40
2018,08,14,04,51,13.30
2018,08,14,04,52,13.30
2018,08,14,04,53,13.30
2018,08,14,04,54,13.30
2018,08,14,04,55,13.30
2018,08,14,04,56,13.30
2018,08,14,04,57,13.30
2018,08,14,04,58,13.20
2018,08,14,04,59,13.20
2018,08,14,05,00,13.20
2018,08,14,05,01,13.20
2018,08,14,05,02,13.20
2018,08,14,05,03,13.20
2018,08,14,05,04,13.20
2018,08,14,05,05,13.20
2018,08,14,05,06,13.20
2018,08,14,05,07,13.20
2018,08,14,05,08,13.20
2018,08,14,05,09,13.20
2018,08,14,05,10,13.20
2018,08,14,05,11,13.20
2018,08,14,05,12,13.10
2018,08,14,05,13,13.10
2018,08,14,05,14,13.10
2018,08,14,05,15,13.10
2018,08,14,05,16,13.10
2018,08,14,05,17,13.10
2018,08,14,05,18,13.10
2018,08,14,05,19,13.10
2018,08,14,05,20,13.10
2018,08,14,05,21,13.00
2018,08,14,05,22,13.00
2018,08,14,05,23,13.00
2018,08,14,05,24,13.00
2018,08,14,05,25,13.00
2018,08,14,05,26,13.00
2018,08,14,05,27,13.00
2018,08,14,05,28,12.90
2018,08,14,05,29,12.90
2018,08,14,05,30,12.90
2018,08,14,05,31,12.90
2018,08,14,05,32,12.90
2018,08,14,05,33,12.90
2018,08,14,05,34,12.90
2018,08,14,05,35,12.90
2018,08,14,05,36,12.90
2018,08,14,05,37,12.80
2018,08,14,05,38,12.80
2018,08,14,05,39,12.80
2018,08,14,05,40,12.80
2018,08,14,05,41,12.80
2018,08,14,05,42,12.80
2018,08,14,05,43,12.70
2018,08,14,05,44,12.70
2018,08,14,05,45,12.70
2018,08,14,05,46,12.70
2018,08,14,05,47,12.70
2018,08,14,05,48,12.70
2018,08,14,05,49,12.70
2018,08,14,05,50,12.70
2018,08,14,05,51,12.70
2018,08,14,05,52,12.70
2018,08,14,05,53,12.70
2018,08,14,05,54,12.60
2018,08,14,05,55,12.60
2018,08,14,05,56,12.60
2018,08,14,05,57,12.60
2018,08,14,05,58,12.60
2018,08,14,05,59,12.60
2018,08,14,06,00,12.60
2018,08,14,06,01,12.60
2018,08,14,06,02,12.60
2018,08,14,06,03,12.50
2018,08,14,06,04,12.50
2018,08,14,06,05,12.50
2018,08,14,06,06,12.50
2018,08,14,06,07,12.50
2018,08,14,06,08,12.50
2018,08,14,06,09,12.50
2018,08,14,06,10,12.40
2018,08,14,06,11,12.40
2018,08,14,06,12,12.40
2018,08,14,06,13,12.40
2018,08,14,06,14,12.40
2018,08,14,06,15,12.40
2018,08,14,06,16,12.40
2018,08,14,06,17,12.40
2018,08,14,06,18,12.40
2018,08,14,06,19,12.40
2018,08,14,06,20,12.40
2018,08,14,06,21,12.40
2018,08,14,06,22,12.40
2018,08,14,06,23,12.40
2018,08,14,06,24,12.40
2018,08,14,06,25,12.30
2018,08,14,06,26,12.30
2018,08,14,06,27,12.30
2018,08,14,06,28,12.30
2018,08,14,06,29,12.30
2018,08,14,06,30,12.30
2018,08,14,06,31,12.30
2018,08,14,06,32,12.30
2018,08,14,06,33,12.30
2018,08,14,06,34,12.30
2018,08,14,06,35,12.30
2018,08,14,06,36,12.30
2018,08,14,06,37,12.30
2018,08,14,06,38,12.30
2018,08,14,06,39,12.30
2018,08,14,06,40,12.30
2018,08,14,06,41,12.20
2018,08,14,06,42,12.20
2018,08,14,06,43,12.20
2018,08,14,06,44,12.20
2018,08,14,06,45,12.20
2018,08,14,06,46,12.20
2018,08,14,06,47,12.20
2018,08,14,06,48,12.20
2018,08,14,06,49,12.20
2018,08,14,06,50,12.20
2018,08,14,06,51,12.20
2018,08,14,06,52,12.20
2018,08,14,06,53,12.20
2018,08,14,06,54,12.20
2018,08,14,06,55,12.20
2018,08,14,06,56,12.20
2018,08,14,06,57,12.20
2018,08,14,06,58,12.20
2018,08,14,06,59,12.20
2018,08,14,07,00,12.20
2018,08,14,07,01,12.20
2018,08,14,07,02,12.20
2018,08,14,07,03,12.20
2018,08,14,07,04,12.20
2018,08,14,07,05,12.20
2018,08,14,07,06,12.20
2018,08,14,07,07,12.20
2018,08,14,07,08,12.20
2018,08,14,07,09,12.20
2018,08,14,07,10,12.20
2018,08,14,07,11,12.20
2018,08,14,07,12,12.30
2018,08,14,07,13,12.30
2018,08,14,07,14,12.30
2018,08,14,07,15,12.30
2018,08,14,07,16,12.30
2018,08,14,07,17,12.30
2018,08,14,07,18,12.30
2018,08,14,07,19,12.30
2018,08,14,07,20,12.30
2018,08,14,07,21,12.30
2018,08,14,07,22,12.30
2018,08,14,07,23,12.30
2018,08,14,07,24,12.30
2018,08,14,07,25,12.30
2018,08,14,07,26,12.30
2018,08,14,07,27,12.30
2018,08,14,07,28,12.30
2018,08,14,07,29,12.40
2018,08,14,07,30,12.40
2018,08,14,07,31,12.40
2018,08,14,07,32,12.40
2018,08,14,07,33,12.40
2018,08,14,07,34,12.40
2018,08,14,07,35,12.50
2018,08,14,07,36,12.50
2018,08,14,07,37,12.60
2018,08,14,07,38,12.60
2018,08,14,07,39,12.70
2018,08,14,07,40,12.70
2018,08,14,07,41,12.80
2018,08,14,07,42,12.90
2018,08,14,07,43,12.90
2018,08,14,07,44,13.00
2018,08,14,07,45,13.00
2018,08,14,07,46,13.10
2018,08,14,07,47,13.10
2018,08,14,07,48,13.20
2018,08,14,07,49,13.20
2018,08,14,07,50,13.30
2018,08,14,07,51,13.30
2018,08,14,07,52,13.40
2018,08,14,07,53,13.50
2018,08,14,07,54,13.60
2018,08,14,07,55,13.60
2018,08,14,07,56,13.70
2018,08,14,07,57,13.70
2018,08,14,07,58,13.80
2018,08,14,07,59,13.80
2018,08,14,08,00,13.90
2018,08,14,08,02,14.00
2018,08,14,08,03,14.00
2018,08,14,08,04,14.10
2018,08,14,08,05,14.10
2018,08,14,08,06,14.20
2018,08,14,08,07,14.20
2018,08,14,08,08,14.30
2018,08,14,08,09,14.30
2018,08,14,08,10,14.30
2018,08,14,08,11,14.40
2018,08,14,08,12,14.40
2018,08,14,08,13,14.40
2018,08,14,08,14,14.40
2018,08,14,08,15,14.50
2018,08,14,08,16,14.50
2018,08,14,08,17,14.60
2018,08,14,08,18,14.60
2018,08,14,08,19,14.60
2018,08,14,08,20,14.70
2018,08,14,08,21,14.70
2018,08,14,08,22,14.80
2018,08,14,08,23,14.80
2018,08,14,08,24,14.80
2018,08,14,08,25,14.80
2018,08,14,08,26,14.90
2018,08,14,08,27,14.90
2018,08,14,08,28,14.90
2018,08,14,08,29,14.90
2018,08,14,08,30,15.00
2018,08,14,08,31,15.00
2018,08,14,08,32,15.00
2018,08,14,08,33,15.00
2018,08,14,08,34,15.10
2018,08,14,08,35,15.20
2018,08,14,08,36,15.20
2018,08,14,08,37,15.30
2018,08,14,08,38,15.30
2018,08,14,08,39,15.40
2018,08,14,08,40,15.40
2018,08,14,08,41,15.40
2018,08,14,08,42,15.40
2018,08,14,08,43,15.50
2018,08,14,08,44,15.50
2018,08,14,08,45,15.60
2018,08,14,08,46,15.60
2018,08,14,08,47,15.70
2018,08,14,08,48,15.70
2018,08,14,08,49,15.80
2018,08,14,08,50,15.90
2018,08,14,08,51,15.90
2018,08,14,08,52,16.00
2018,08,14,08,53,16.00
2018,08,14,08,54,16.10
2018,08,14,08,55,16.10
2018,08,14,08,56,16.20
2018,08,14,08,57,16.20
2018,08,14,08,58,16.30
2018,08,14,08,59,16.30
2018,08,14,09,00,16.30
2018,08,14,09,01,16.40
2018,08,14,09,02,16.50
2018,08,14,09,03,16.50
2018,08,14,09,04,16.60
2018,08,14,09,05,16.60
2018,08,14,09,06,16.70
2018,08,14,09,07,16.70
2018,08,14,09,08,16.80
2018,08,14,09,09,16.80
2018,08,14,09,10,16.80
2018,08,14,09,11,16.90
2018,08,14,09,12,17.00
2018,08,14,09,13,17.00
2018,08,14,09,14,17.10
2018,08,14,09,15,17.20
2018,08,14,09,16,17.20
2018,08,14,09,17,17.30
2018,08,14,09,18,17.30
2018,08,14,09,19,17.30
2018,08,14,09,20,17.30
2018,08,14,09,21,17.30
2018,08,14,09,22,17.40
2018,08,14,09,23,17.40
2018,08,14,09,24,17.40
2018,08,14,09,25,17.40
2018,08,14,09,26,17.50
2018,08,14,09,27,17.60
2018,08,14,09,28,17.60
2018,08,14,09,29,17.70
2018,08,14,09,30,17.80
2018,08,14,09,31,17.80
2018,08,14,09,32,17.90
2018,08,14,09,33,17.90
2018,08,14,09,34,17.90
2018,08,14,09,35,17.90
2018,08,14,09,36,18.00
2018,08,14,09,37,18.00
2018,08,14,09,38,18.00
2018,08,14,09,39,18.00
2018,08,14,09,40,18.10
2018,08,14,09,41,18.10
2018,08,14,09,42,18.10
2018,08,14,09,43,18.10
2018,08,14,09,44,18.20
2018,08,14,09,45,18.20
2018,08,14,09,46,18.30
2018,08,14,09,47,18.30
2018,08,14,09,48,18.30
2018,08,14,09,49,18.30
2018,08,14,09,50,18.30
2018,08,14,09,51,18.30
2018,08,14,09,52,18.40
2018,08,14,09,53,18.40
2018,08,14,09,54,18.40
2018,08,14,09,55,18.50
2018,08,14,09,56,18.60
2018,08,14,09,57,18.60
2018,08,14,09,58,18.70
2018,08,14,09,59,18.80
2018,08,14,10,00,18.80
2018,08,14,10,01,18.90
2018,08,14,10,02,18.90
2018,08,14,10,03,19.00
2018,08,14,10,04,19.00
2018,08,14,10,05,19.10
2018,08,14,10,06,19.20
2018,08,14,10,07,19.20
2018,08,14,10,08,19.30
2018,08,14,10,09,19.40
2018,08,14,10,10,19.40
2018,08,14,10,11,19.50
2018,08,14,10,12,19.60
2018,08,14,10,13,19.60
2018,08,14,10,14,19.70
2018,08,14,10,15,19.70
2018,08,14,10,16,19.80
2018,08,14,10,17,19.80
2018,08,14,10,18,19.80
2018,08,14,10,19,19.90
2018,08,14,10,20,19.90
2018,08,14,10,21,20.00
2018,08,14,10,22,20.00
2018,08,14,10,23,20.00
2018,08,14,10,24,20.10
2018,08,14,10,25,20.10
2018,08,14,10,26,20.10
2018,08,14,10,27,20.20
2018,08,14,10,28,20.20
2018,08,14,10,29,20.30
2018,08,14,10,30,20.30
2018,08,14,10,31,20.40
2018,08,14,10,32,20.40
2018,08,14,10,33,20.40
2018,08,14,10,34,20.40
2018,08,14,10,35,20.50
2018,08,14,10,36,20.60
2018,08,14,10,37,20.60
2018,08,14,10,38,20.70
2018,08,14,10,39,20.80
2018,08,14,10,40,20.80
2018,08,14,10,41,20.90
2018,08,14,10,42,20.90
2018,08,14,10,43,20.90
2018,08,14,10,44,20.90
2018,08,14,10,45,21.00
2018,08,14,10,46,21.00
2018,08,14,10,47,21.10
2018,08,14,10,48,21.10
2018,08,14,10,49,21.20
2018,08,14,10,50,21.20
2018,08,14,10,51,21.20
2018,08,14,10,52,21.20
2018,08,14,10,53,21.30
2018,08,14,10,54,21.30
2018,08,14,10,55,21.40
2018,08,14,10,56,21.50
2018,08,14,10,57,21.60
2018,08,14,10,58,21.70
2018,08,14,10,59,21.80
2018,08,14,11,00,22.00
2018,08,14,11,01,22.10
2018,08,14,11,02,22.20
2018,08,14,11,03,22.30
2018,08,14,11,04,22.40
2018,08,14,11,05,22.50
2018,08,14,11,06,22.50
2018,08,14,11,07,22.50
2018,08,14,11,08,22.50
2018,08,14,11,09,22.50
2018,08,14,11,10,22.50
2018,08,14,11,11,22.50
2018,08,14,11,12,22.60
2018,08,14,11,13,22.60
2018,08,14,11,14,22.70
2018,08,14,11,15,22.80
2018,08,14,11,16,22.90
2018,08,14,11,17,23.00
2018,08,14,11,18,23.10
2018,08,14,11,19,23.20
2018,08,14,11,20,23.20
2018,08,14,11,21,23.30
2018,08,14,11,22,23.40
2018,08,14,11,23,23.50
2018,08,14,11,24,23.60
2018,08,14,11,25,23.70
2018,08,14,11,26,23.80
2018,08,14,11,27,23.90
2018,08,14,11,28,23.90
2018,08,14,11,29,23.90
2018,08,14,11,30,24.00
2018,08,14,11,31,24.00
2018,08,14,11,32,24.10
2018,08,14,11,33,24.10
2018,08,14,11,34,24.10
2018,08,14,11,35,24.00
2018,08,14,11,36,24.00
2018,08,14,11,37,24.10
2018,08,14,11,38,24.10
2018,08,14,11,39,24.10
2018,08,14,11,40,24.20
2018,08,14,11,41,24.30
2018,08,14,11,42,24.30
2018,08,14,11,43,24.40
2018,08,14,11,44,24.50
2018,08,14,11,45,24.70
2018,08,14,11,46,24.70
2018,08,14,11,47,24.80
2018,08,14,11,48,24.80
2018,08,14,11,49,24.90
2018,08,14,11,50,25.00
2018,08,14,11,51,25.10
2018,08,14,11,52,25.20
2018,08,14,11,53,25.20
2018,08,14,11,54,25.30
2018,08,14,11,55,25.30
2018,08,14,11,56,25.30
2018,08,14,11,57,25.30
2018,08,14,11,58,25.30
2018,08,14,11,59,25.40
2018,08,14,12,00,25.40
2018,08,14,12,01,25.40
2018,08,14,12,02,25.50
2018,08,14,12,03,25.60
2018,08,14,12,04,25.60
2018,08,14,12,05,25.70
2018,08,14,12,06,25.70
2018,08,14,12,07,25.80
2018,08,14,12,08,25.80
2018,08,14,12,09,25.90
2018,08,14,12,10,25.90
2018,08,14,12,11,26.00
2018,08,14,12,12,26.00
2018,08,14,12,13,26.10
2018,08,14,12,14,26.20
2018,08,14,12,15,26.20
2018,08,14,12,16,26.30
2018,08,14,12,17,26.40
2018,08,14,12,18,26.40
2018,08,14,12,19,26.60
2018,08,14,12,20,26.70
2018,08,14,12,21,26.80
2018,08,14,12,22,26.80
2018,08,14,12,23,26.90
2018,08,14,12,24,26.90
2018,08,14,12,25,27.00
2018,08,14,12,26,27.00
2018,08,14,12,27,27.10
2018,08,14,12,28,27.10
2018,08,14,12,29,27.20
2018,08,14,12,30,27.30
2018,08,14,12,31,27.40
2018,08,14,12,32,27.50
2018,08,14,12,33,27.60
2018,08,14,12,34,27.70
2018,08,14,12,35,27.80
2018,08,14,12,36,27.80
2018,08,14,12,37,27.80
2018,08,14,12,38,27.90
2018,08,14,12,39,27.90
2018,08,14,12,40,28.00
2018,08,14,12,41,28.00
2018,08,14,12,42,28.10
2018,08,14,12,43,28.10
2018,08,14,12,44,28.20
2018,08,14,12,45,28.20
2018,08,14,12,46,28.30
2018,08,14,12,47,28.40
2018,08,14,12,48,28.50
2018,08,14,12,49,28.60
2018,08,14,12,50,28.60
2018,08,14,12,51,28.70
2018,08,14,12,52,28.80
2018,08,14,12,53,28.80
2018,08,14,12,54,28.80
2018,08,14,12,55,28.90
2018,08,14,12,56,28.90
2018,08,14,12,57,28.90
2018,08,14,12,58,29.00
2018,08,14,12,59,29.00
2018,08,14,13,00,29.10
2018,08,14,13,01,29.10
2018,08,14,13,02,29.20
2018,08,14,13,03,29.20
2018,08,14,13,04,29.20
2018,08,14,13,05,29.20
2018,08,14,13,06,29.20
2018,08,14,13,07,29.20
2018,08,14,13,08,29.30
2018,08,14,13,09,29.40
2018,08,14,13,10,29.50
2018,08,14,13,11,29.60
2018,08,14,13,12,29.70
2018,08,14,13,13,29.80
2018,08,14,13,14,29.80
2018,08,14,13,15,29.80
2018,08,14,13,16,29.90
2018,08,14,13,17,30.00
2018,08,14,13,18,30.10
2018,08,14,13,19,30.10
2018,08,14,13,20,30.10
2018,08,14,13,21,30.20
2018,08,14,13,22,30.20
2018,08,14,13,23,30.30
2018,08,14,13,24,30.40
2018,08,14,13,25,30.40
2018,08,14,13,26,30.50
2018,08,14,13,27,30.60
2018,08,14,13,28,30.80
2018,08,14,13,29,30.90
2018,08,14,13,30,31.00
2018,08,14,13,31,31.20
2018,08,14,13,32,31.30
2018,08,14,13,33,31.40
2018,08,14,13,34,31.40
2018,08,14,13,35,31.50
2018,08,14,13,36,31.60
2018,08,14,13,37,31.60
2018,08,14,13,38,31.60
2018,08,14,13,39,31.60
2018,08,14,13,40,31.70
2018,08,14,13,41,31.70
2018,08,14,13,42,31.70
2018,08,14,13,43,31.70
2018,08,14,13,44,31.70
2018,08,14,13,45,31.70
2018,08,14,13,46,31.60
2018,08,14,13,47,31.60
2018,08,14,13,48,31.60
2018,08,14,13,49,31.70
2018,08,14,13,50,31.80
2018,08,14,13,51,31.80
2018,08,14,13,52,31.80
2018,08,14,13,53,31.80
2018,08,14,13,54,31.70
2018,08,14,13,55,31.80
2018,08,14,13,56,31.80
2018,08,14,13,57,31.90
2018,08,14,13,58,32.00
2018,08,14,13,59,32.00
2018,08,14,14,00,32.00
2018,08,14,14,01,32.10
2018,08,14,14,02,32.10
2018,08,14,14,03,32.10
2018,08,14,14,04,32.20
2018,08,14,14,05,32.20
2018,08,14,14,06,32.20
2018,08,14,14,07,32.30
2018,08,14,14,08,32.30
2018,08,14,14,09,32.40
2018,08,14,14,10,32.40
2018,08,14,14,11,32.40
2018,08,14,14,12,32.40
2018,08,14,14,13,32.50
2018,08,14,14,14,32.60
2018,08,14,14,15,32.60
2018,08,14,14,16,32.60
2018,08,14,14,17,32.70
2018,08,14,14,18,32.90
2018,08,14,14,19,33.00
2018,08,14,14,20,33.10
2018,08,14,14,21,33.10
2018,08,14,14,22,33.20
2018,08,14,14,23,33.20
2018,08,14,14,24,33.10
2018,08,14,14,25,33.10
2018,08,14,14,26,33.00
2018,08,14,14,27,33.00
2018,08,14,14,28,32.90
2018,08,14,14,29,32.80
2018,08,14,14,30,32.80
2018,08,14,14,31,32.80
2018,08,14,14,32,32.80
2018,08,14,14,33,32.80
2018,08,14,14,34,32.80
2018,08,14,14,35,32.70
2018,08,14,14,36,32.70
2018,08,14,14,37,32.80
2018,08,14,14,38,32.80
2018,08,14,14,39,32.70
2018,08,14,14,40,32.70
2018,08,14,14,41,32.80
2018,08,14,14,42,32.80
2018,08,14,14,43,32.80
2018,08,14,14,44,32.80
2018,08,14,14,45,32.90
2018,08,14,14,46,32.90
2018,08,14,14,47,32.90
2018,08,14,14,48,32.90
2018,08,14,14,49,32.90
2018,08,14,14,50,33.00
2018,08,14,14,51,33.00
2018,08,14,14,52,33.10
2018,08,14,14,53,33.10
2018,08,14,14,54,33.10
2018,08,14,14,55,33.10
2018,08,14,14,56,33.20
2018,08,14,14,57,33.20
2018,08,14,14,58,33.30
2018,08,14,14,59,33.30
2018,08,14,15,00,33.20
2018,08,14,15,01,33.20
2018,08,14,15,02,33.20
2018,08,14,15,03,33.20
2018,08,14,15,04,33.20
2018,08,14,15,05,33.20
2018,08,14,15,06,33.30
2018,08,14,15,07,33.30
2018,08,14,15,08,33.40
2018,08,14,15,09,33.50
2018,08,14,15,10,33.60
2018,08,14,15,11,33.60
2018,08,14,15,12,33.60
2018,08,14,15,13,33.70
2018,08,14,15,14,33.70
2018,08,14,15,15,33.70
2018,08,14,15,16,33.70
2018,08,14,15,17,33.70
2018,08,14,15,18,33.80
2018,08,14,15,19,33.80
2018,08,14,15,20,33.80
2018,08,14,15,21,33.80
2018,08,14,15,22,33.80
2018,08,14,15,23,33.80
2018,08,14,15,24,33.80
2018,08,14,15,25,33.80
2018,08,14,15,26,33.80
2018,08,14,15,27,33.80
2018,08,14,15,28,33.70
2018,08,14,15,29,33.70
2018,08,14,15,30,33.70
2018,08,14,15,31,33.70
2018,08,14,15,32,33.70
2018,08,14,15,33,33.60
2018,08,14,15,34,33.60
2018,08,14,15,35,33.60
2018,08,14,15,36,33.60
2018,08,14,15,37,33.70
2018,08,14,15,38,33.70
2018,08,14,15,39,33.80
2018,08,14,15,40,33.90
2018,08,14,15,41,33.90
2018,08,14,15,42,34.10
2018,08,14,15,43,34.10
2018,08,14,15,44,34.10
2018,08,14,15,45,34.10
2018,08,14,15,46,34.10
2018,08,14,15,47,34.10
2018,08,14,15,48,34.10
2018,08,14,15,49,34.10
2018,08,14,15,50,34.10
2018,08,14,15,51,34.10
2018,08,14,15,52,34.10
2018,08,14,15,53,34.10
2018,08,14,15,54,34.00
2018,08,14,15,55,34.00
2018,08,14,15,56,34.00
2018,08,14,15,57,34.00
2018,08,14,15,58,34.00
2018,08,14,15,59,33.90
2018,08,14,16,00,33.80
2018,08,14,16,01,33.70
2018,08,14,16,02,33.60
2018,08,14,16,03,33.50
2018,08,14,16,04,33.40
2018,08,14,16,05,33.40
2018,08,14,16,06,33.30
2018,08,14,16,07,33.30
2018,08,14,16,08,33.20
2018,08,14,16,09,33.20
2018,08,14,16,10,33.30
2018,08,14,16,11,33.30
2018,08,14,16,12,33.30
2018,08,14,16,13,33.30
2018,08,14,16,14,33.30
2018,08,14,16,15,33.30
2018,08,14,16,16,33.30
2018,08,14,16,17,33.30
2018,08,14,16,18,33.20
2018,08,14,16,19,33.10
2018,08,14,16,20,33.10
2018,08,14,16,21,33.10
2018,08,14,16,22,33.10
2018,08,14,16,23,33.00
2018,08,14,16,24,33.00
2018,08,14,16,25,33.00
2018,08,14,16,26,33.10
2018,08,14,16,27,33.00
2018,08,14,16,28,33.00
2018,08,14,16,29,33.00
2018,08,14,16,30,33.00
2018,08,14,16,31,33.00
2018,08,14,16,32,33.00
2018,08,14,16,33,33.10
2018,08,14,16,34,33.10
2018,08,14,16,35,33.10
2018,08,14,16,36,33.20
2018,08,14,16,37,33.10
2018,08,14,16,38,33.10
2018,08,14,16,39,33.10
2018,08,14,16,40,33.10
2018,08,14,16,41,33.10
2018,08,14,16,42,33.10
2018,08,14,16,43,33.20
2018,08,14,16,44,33.20
2018,08,14,16,45,33.20
2018,08,14,16,46,33.20
2018,08,14,16,47,33.20
2018,08,14,16,48,33.20
2018,08,14,16,49,33.30
2018,08,14,16,50,33.30
2018,08,14,16,51,33.40
2018,08,14,16,52,33.30
2018,08,14,16,53,33.30
2018,08,14,16,54,33.20
2018,08,14,16,55,33.10
2018,08,14,16,56,33.00
2018,08,14,16,57,32.90
2018,08,14,16,58,32.80
2018,08,14,16,59,32.80
2018,08,14,17,00,32.80
2018,08,14,17,01,32.80
2018,08,14,17,02,32.80
2018,08,14,17,03,32.80
2018,08,14,17,04,32.80
2018,08,14,17,05,32.80
2018,08,14,17,06,32.80
2018,08,14,17,07,32.80
2018,08,14,17,08,32.70
2018,08,14,17,09,32.70
2018,08,14,17,10,32.70
2018,08,14,17,11,32.70
2018,08,14,17,12,32.70
2018,08,14,17,13,32.70
2018,08,14,17,14,32.70
2018,08,14,17,15,32.70
2018,08,14,17,16,32.80
2018,08,14,17,17,32.90
2018,08,14,17,18,32.90
2018,08,14,17,19,32.90
2018,08,14,17,20,32.80